Showing default

FLOCK 4G 27, 62641

Orbit data source: Space-Track

FLOCK 4G 27, 62641 is a payload satellite owned by Planet (US) in SSO that was launched on Tue, 14 Jan 2025 UTC via an FALCON 9 launch vehicle from the Air Force Western Test Range (AFWTR). Payload-class satellites include a variety of spacecraft equipped with specific instruments for various scientific and technological missions. These include communications satellites like Starlink; space stations such as the ISS; scientific satellites like the Hubble; Earth observation satellites from companies like Planet Labs, Umbra, and HawkEye 360; GPS; miniature CubeSats for education and research; and military/defense satellites.

Loading next visibility...
Identifier
62641, 2025-009AJ
Orbit
SSO
Last TLE update
13 hours ago
Origin
Manufacturer
Planet
Mission
Operational Commercial Imaging
Bus & Motor
CUBESAT 3U, Unknown motor
Mass
5.7 kg wet, 5.7 kg dry
Launch date (UTC)
2025-01-14 (4 months ago)
Launch vehicle
FALCON 9
Launch site
Air Force Western Test Range (AFWTR)
Object type
Payload
Rocket body
Debris
Shape & HBR
Box + 2 Pan, 0.3 m
Radar Cross Section
0.035 m², Medium (>0.1 m² and < 1m²)

Expand to show TLE details & history

TLE from 13 hours ago
0 FLOCK 4G 27
1 62641U 25009AJ  25128.75197649  .00009246  00000-0  42867-3 0  9992
2 62641  97.4255 209.5479 0000919 289.7876  70.3260 15.20285371 17285
Epoch: 2025-05-08T18:02Z
Definitive object data (Epoch: 2025-05-08T18:02:50.768Z)
Latitude
-0.00005°
Longitude
72.0184°
Altitude
507.856 km
Speed
7.61 km/s
True Right ascension
13h 58m 11s
True Declination
0° 00' 00"
Sunlit
Object was in full shadow at TLE epoch
Visualization TLE readout
Latitude
31.20757°
Longitude
68.03903°
Altitude
509.187 km
Speed
7.612 km/s
Apparent Right ascension
10h 15m 53s
Apparent Declination
-14° 22' 45"
Sunlit
Object is in full shadow
Visualization observer readout
Local Sidereal Time
14:58:13
Azimuth
246.507° WSW
Elevation
5.028°
Doppler factor
1
Orbital elements
Apogee altitude
502.578 km
Perigee altitude
501.313 km
Semi-major axis
6,880.082 km
Eccentricity
0.0000919
Inclination
97.4255°
RAAN
209.5479°
Arg. of periapsis
289.7876°
True anomaly
70.33592°
Mean anomaly
70.326°
Eccentric anomaly
70.33096°
Mean motion
3.80323 °/min
BSTAR
0.00042867
Orbital period
94.66 mins
Loading maneuver chart data...
Loading SW <> Apogee altitude chart data...
Loading historical data...
Loading historical data...
Loading historical data...
Loading historical data...
Loading historical data...
Loading historical data...
Loading historical data...

FLOCK 4G 27 Visibility forecast

Observer location: undefined°, undefined°

Span
Click to sort rows by Start time (UTC) header in descending order
Start Az.
Max El. time (UTC)
Max El. Az.
Max El.
End time (UTC)
End Az.
6 mins2025-05-09 18:18:19.549Z8.129° NNE2025-05-09 18:21:19.549Z259.817° W44.212°2025-05-09 18:24:19.549Z198.091° SSW
4 mins2025-05-10 04:57:19.549Z122.797° SE2025-05-10 04:59:19.549Z56.067° ENE30.623°2025-05-10 05:01:19.549Z12.32° NNE
|